STARLINK-34822 (65086 NORAD) Tracking and Keplerian Element Data

This shows tracking and keplerian element data for the satellite.

Feedback or suggestion? Click here.




ElementValue
Catalog65086
NameSTARLINK-34822
Epoch Orbit2129
Epoch Day354.12938122
Epoch Year2025
RAAN36.5789
Inclination53.1599
Eccentricity0.0001349
Argument of Perigee78.1162
Mean Anonmoly281.999
Mean Motion15.30202737
Decay Rate0.00015612
L11 65086U 25167J 25354.12938122 .00015612 00000+0 53807-3 0 9993
L22 65086 53.1599 36.5789 0001349 78.1162 281.9990 15.30202737 21291



Live tracking and technical data element details for STARLINK-34822 (NORAD 65086). STARLINK-34822 can be tracked NOW for your location showing map with azimuth and elevation plus other details from your city location.







IsCatalogInMostPopularTable: catalog: 65086, numindb: 5
Update: records affected: 1



GetName: 65086 STARLINK-34822

Hit Count: updated at: Mon, 20 Apr 2026 09:31:26 GMT